Time,TemperatureF,DewpointF,PressureIn,WindDirection,WindDirectionDegrees,WindSpeedMPH,WindSpeedGustMPH,Humidity,HourlyPrecipIn,Conditions,Clouds,dailyrainin,SoftwareType,DateUTC
2013-03-14 00:00:00,29.2,29.2,19.99,West,279,4.0,9.0,100,0.00,,---,0.00,VWS V13.00,2013-03-14 04:00:00,
2013-03-14 00:30:00,28.8,28.8,20.00,West,275,3.0,13.0,100,0.00,,---,0.00,VWS V13.00,2013-03-14 04:30:00,
2013-03-14 01:00:00,28.6,28.6,19.99,West,263,6.0,13.0,100,0.00,,---,0.00,VWS V13.00,2013-03-14 05:00:00,
2013-03-14 01:30:00,27.6,27.6,20.00,WNW,283,5.0,12.0,100,0.00,,---,0.00,VWS V13.00,2013-03-14 05:30:00,
2013-03-14 02:00:00,26.9,26.9,19.99,West,267,14.0,14.0,100,0.00,,---,0.00,VWS V13.00,2013-03-14 06:00:00,
2013-03-14 02:30:00,25.5,25.5,19.99,West,266,6.0,21.0,100,0.00,,---,0.00,VWS V13.00,2013-03-14 06:30:00,
2013-03-14 03:00:00,24.9,24.9,19.99,WNW,284,12.0,22.0,100,0.00,,---,0.00,VWS V13.00,2013-03-14 07:00:00,
2013-03-14 03:30:00,24.6,24.6,20.00,West,277,21.0,21.0,100,0.00,,---,0.00,VWS V13.00,2013-03-14 07:30:00,
2013-03-14 04:00:00,24.0,24.0,19.99,West,266,11.0,23.0,100,0.00,,---,0.00,VWS V13.00,2013-03-14 08:00:00,
2013-03-14 05:30:00,22.4,22.4,19.99,West,264,5.0,16.0,100,0.00,,---,0.00,VWS V13.00,2013-03-14 09:30:00,
2013-03-14 06:00:00,21.8,21.8,19.99,West,272,9.0,20.0,100,0.00,,---,0.00,VWS V13.00,2013-03-14 10:00:00,
2013-03-14 06:30:00,21.7,21.7,19.99,West,269,5.0,15.0,100,0.00,,---,0.00,VWS V13.00,2013-03-14 10:30:00,
2013-03-14 07:00:00,21.3,21.3,19.99,West,273,8.0,19.0,100,0.00,,---,0.00,VWS V13.00,2013-03-14 11:00:00,
2013-03-14 07:30:00,21.6,21.6,20.00,West,273,5.0,15.0,100,0.00,,---,0.00,VWS V13.00,2013-03-14 11:30:00,
2013-03-14 08:00:00,22.5,22.5,20.00,West,260,7.0,16.0,100,0.00,,---,0.00,VWS V13.00,2013-03-14 12:00:00,
2013-03-14 08:30:00,22.2,22.2,19.99,WNW,283,15.0,25.0,100,0.00,,---,0.00,VWS V13.00,2013-03-14 12:30:00,
2013-03-14 09:00:00,22.0,22.0,19.99,West,264,11.0,24.0,100,0.00,,---,0.00,VWS V13.00,2013-03-14 13:00:00,
2013-03-14 09:30:00,21.4,21.4,19.99,West,270,4.0,23.0,100,0.00,,---,0.00,VWS V13.00,2013-03-14 13:30:00,
2013-03-14 10:00:00,22.2,22.2,20.00,WNW,287,5.0,15.0,100,0.00,,---,0.00,VWS V13.00,2013-03-14 14:00:00,
2013-03-14 10:30:00,21.8,21.8,19.99,West,281,10.0,18.0,100,0.00,,---,0.00,VWS V13.00,2013-03-14 14:30:00,
2013-03-14 11:00:00,21.8,21.8,19.99,West,278,9.0,24.0,100,0.00,,---,0.00,VWS V13.00,2013-03-14 15:00:00,
2013-03-14 11:30:00,21.9,21.9,19.99,West,274,12.0,25.0,100,0.00,,---,0.00,VWS V13.00,2013-03-14 15:30:00,
2013-03-14 12:00:00,23.5,23.5,19.99,West,274,15.0,22.0,100,0.00,,---,0.00,VWS V13.00,2013-03-14 16:00:00,
2013-03-14 12:30:00,22.8,22.8,19.99,NW,314,11.0,24.0,100,0.00,,---,0.00,VWS V13.00,2013-03-14 16:30:00,
2013-03-14 13:00:00,25.1,25.1,20.00,NW,312,8.0,27.0,100,0.00,,---,0.00,VWS V13.00,2013-03-14 17:00:00,
2013-03-14 13:30:00,24.7,24.7,19.99,West,262,11.0,23.0,100,0.00,,---,0.00,VWS V13.00,2013-03-14 17:30:00,
2013-03-14 14:00:00,23.6,23.6,20.00,NW,305,7.0,23.0,100,0.00,,---,0.00,VWS V13.00,2013-03-14 18:00:00,
2013-03-14 14:30:00,24.3,24.3,19.99,West,271,10.0,26.0,100,0.00,,---,0.00,VWS V13.00,2013-03-14 18:30:00,
2013-03-14 15:00:00,23.7,23.7,19.99,NW,310,5.0,23.0,100,0.00,,---,0.00,VWS V13.00,2013-03-14 19:00:00,
2013-03-14 15:30:00,23.8,23.8,19.99,WNW,285,7.0,27.0,100,0.00,,---,0.00,VWS V13.00,2013-03-14 19:30:00,
2013-03-14 16:00:00,22.8,22.8,19.99,West,278,3.0,19.0,100,0.00,,---,0.00,VWS V13.00,2013-03-14 20:00:00,
2013-03-14 16:30:00,20.4,20.4,20.00,WNW,288,8.0,24.0,100,0.00,,---,0.00,VWS V13.00,2013-03-14 20:30:00,
2013-03-14 17:00:00,18.8,18.8,19.99,NW,306,7.0,25.0,100,0.00,,---,0.00,VWS V13.00,2013-03-14 21:00:00,
2013-03-14 17:30:00,18.2,18.2,19.99,NW,308,7.0,28.0,100,0.00,,---,0.00,VWS V13.00,2013-03-14 21:30:00,
2013-03-14 18:00:00,17.3,17.3,19.99,West,279,5.0,22.0,100,0.00,,---,0.00,VWS V13.00,2013-03-14 22:00:00,
2013-03-14 18:30:00,15.3,15.3,19.99,NW,317,11.0,22.0,100,0.00,,---,0.00,VWS V13.00,2013-03-14 22:30:00,
2013-03-14 19:00:00,15.2,15.2,19.99,NW,318,5.0,15.0,100,0.00,,---,0.00,VWS V13.00,2013-03-14 23:00:00,
2013-03-14 19:30:00,14.4,14.4,19.99,NNW,329,2.0,16.0,100,0.00,,---,0.00,VWS V13.00,2013-03-14 23:30:00,
2013-03-14 20:00:00,13.6,13.6,19.99,NNW,329,1.0,15.0,100,0.00,,---,0.00,VWS V13.00,2013-03-15 00:00:00,
2013-03-14 20:30:00,13.7,13.7,19.99,NW,323,7.0,13.0,100,0.00,,---,0.00,VWS V13.00,2013-03-15 00:30:00,
2013-03-14 21:00:00,13.4,13.4,20.00,NW,325,4.0,9.0,100,0.00,,---,0.00,VWS V13.00,2013-03-15 01:00:00,
2013-03-14 21:30:00,13.1,13.1,19.99,NNW,341,5.0,14.0,100,0.00,,---,0.00,VWS V13.00,2013-03-15 01:30:00,
2013-03-14 22:00:00,13.6,13.6,19.99,NNW,343,1.0,12.0,100,0.00,,---,0.00,VWS V13.00,2013-03-15 02:00:00,
2013-03-14 22:30:00,13.5,13.5,19.99,West,279,2.0,13.0,100,0.00,,---,0.00,VWS V13.00,2013-03-15 02:30:00,
2013-03-14 23:00:00,13.5,13.5,20.00,NW,304,2.0,13.0,100,0.00,,---,0.00,VWS V13.00,2013-03-15 03:00:00,
2013-03-14 23:30:00,13.8,13.8,19.99,NNW,344,4.0,14.0,100,0.00,,---,0.00,VWS V13.00,2013-03-15 03:30:00,